Rochester, NY

6:04 AM EDT on September 18, 2019 (GMT -0400)
Greater Rochester International

Weather History for KROC - August, 2019

Change the Weather History Date:

Monday, August 19, 2019

  Actual Average Record
Temperature  
Mean Temperature 76 °F 69 °F  
Max Temperature 84 °F 79 °F 94 °F (1936)
Min Temperature 69 °F 59 °F 46 °F (1977)
Degree Days  
Heating Degree Days 0 1  
Month to date heating degree days 0 9  
Since 1 June heating degree days 48 89  
Since 1 July heating degree days 0 21  
Cooling Degree Days 12 5  
Month to date cooling degree days 129 106  
Year to date cooling degree days 513 435  
Since 1 June cooling degree days 503 405  
Growing Degree Days 26 (Base 50)    
Moisture  
Dew Point 64 °F    
Average Humidity 66    
Maximum Humidity 84    
Minimum Humidity 48    
Precipitation  
Precipitation T in 0.10 in 1.75 in (1880)
Month to date precipitation 1.24 2.22  
Year to date precipitation 20.35 21.35  
Snow  
Snow 0.00 in 0.00 in 0.00 in ()
Month to date snowfall 0.0 0.0  
Since 1 June snowfall 0.0 0.0  
Since 1 July snowfall 0.0 0.0  
Snow Depth 0.00 in    
Sea Level Pressure  
Sea Level Pressure 29.97 in    
Wind  
Wind Speed 9 mph ()    
Max Wind Speed 22 mph    
Max Gust Speed 31 mph    
Visibility 10.0 miles    
Events Rain    
T = Trace of Precipitation, MM = Missing Value Source: Averaged Metar Reports

Daily Weather History Graph

Daily Weather History Graph

Search for Another Location

Airport or City:

Astronomy

Aug. 19, 2019 Rise Set
Actual Time 6:20 AM EDT 8:07 PM EDT
Civil Twilight 5:50 AM EDT 8:37 PM EDT
Nautical Twilight 5:13 AM EDT 9:14 PM EDT
Astronomical Twilight 4:33 AM EDT 9:54 PM EDT
Moon 10:21 PM EDT (8/19) 10:04 AM EDT (8/19)
Length of Visible Light 14h 47m
Length of Day
13h 46m
Waning Gibbous, 85% of the Moon is Illuminated
Aug 19
Waning Gibbous
Aug 23
Last Quarter
Aug 30
New
Sep 5
First Quarter
Sep 14
Full

Hourly Weather History & Observations

Time (EDT) Temp. Heat Index Dew Point Humidity Pressure Visibility Wind Dir Wind Speed Gust Speed Precip Events Conditions
12:54 AM 73.9 °F - 64.9 °F 73% 29.86 in 10.0 mi SW 9.2 mph - N/A   Mostly Cloudy
1:54 AM 73.9 °F - 63.0 °F 68% 29.86 in 10.0 mi SSW 8.1 mph - N/A   Mostly Cloudy
2:54 AM 75.0 °F - 63.0 °F 66% 29.89 in 10.0 mi West 9.2 mph 31.1 mph N/A   Mostly Cloudy
3:54 AM 73.0 °F - 64.0 °F 73% 29.89 in 10.0 mi SW 9.2 mph - N/A   Overcast
4:54 AM 73.9 °F - 64.9 °F 73% 29.90 in 10.0 mi WSW 19.6 mph 26.5 mph 0.00 in   Overcast
5:54 AM 72.0 °F - 66.0 °F 81% 29.91 in 10.0 mi WSW 9.2 mph - 0.00 in Rain Light Rain
6:33 AM 71.1 °F - 66.0 °F 84% 29.93 in 10.0 mi WSW 8.1 mph - 0.00 in Rain Light Rain
6:54 AM 71.1 °F - 66.0 °F 84% 29.94 in 10.0 mi SW 6.9 mph - 0.00 in   Mostly Cloudy
7:54 AM 72.0 °F - 66.0 °F 81% 29.95 in 10.0 mi WSW 8.1 mph - N/A   Mostly Cloudy
8:54 AM 75.9 °F - 66.9 °F 74% 29.96 in 10.0 mi West 11.5 mph - N/A   Mostly Cloudy
9:54 AM 77.0 °F - 66.0 °F 69% 29.98 in 10.0 mi West 15.0 mph 21.9 mph N/A   Mostly Cloudy
10:37 AM 77.0 °F - 64.9 °F 66% 30.00 in 10.0 mi West 11.5 mph - N/A   Mostly Cloudy
10:54 AM 78.1 °F - 64.9 °F 64% 30.00 in 10.0 mi West 11.5 mph - N/A   Mostly Cloudy
11:11 AM 79.0 °F - 64.0 °F 60% 30.01 in 10.0 mi WNW 10.4 mph - N/A   Mostly Cloudy
11:54 AM 80.1 °F 81.7 °F 64.0 °F 58% 30.00 in 10.0 mi NW 9.2 mph - N/A   Mostly Cloudy
12:54 PM 81.0 °F 82.5 °F 64.0 °F 56% 30.01 in 10.0 mi WNW 9.2 mph - N/A   Scattered Clouds
1:54 PM 82.9 °F 84.0 °F 63.0 °F 51% 30.01 in 10.0 mi WNW 10.4 mph 19.6 mph N/A   Mostly Cloudy
2:54 PM 82.0 °F 83.4 °F 64.0 °F 54% 30.01 in 10.0 mi WNW 10.4 mph - N/A   Mostly Cloudy
3:54 PM 84.0 °F 84.9 °F 63.0 °F 49% 30.00 in 10.0 mi West 11.5 mph 19.6 mph N/A   Mostly Cloudy
4:54 PM 82.0 °F 83.1 °F 63.0 °F 52% 30.00 in 10.0 mi West 11.5 mph - N/A   Mostly Cloudy
5:54 PM 82.0 °F 83.4 °F 64.0 °F 54% 29.99 in 10.0 mi NW 10.4 mph - N/A   Mostly Cloudy
6:54 PM 79.0 °F - 62.1 °F 56% 30.00 in 10.0 mi West 10.4 mph - N/A   Mostly Cloudy
7:54 PM 78.1 °F - 62.1 °F 58% 30.01 in 10.0 mi West 10.4 mph - N/A   Mostly Cloudy
8:54 PM 75.0 °F - 63.0 °F 66% 30.03 in 10.0 mi West 6.9 mph - N/A   Mostly Cloudy
9:54 PM 73.9 °F - 62.1 °F 66% 30.05 in 10.0 mi West 6.9 mph - N/A   Partly Cloudy
10:54 PM 70.0 °F - 63.0 °F 78% 30.06 in 10.0 mi West 4.6 mph - N/A   Clear
11:54 PM 70.0 °F - 64.0 °F 81% 30.07 in 10.0 mi West 4.6 mph - N/A   Partly Cloudy